Wind_Speed
8 7 7 6 5 5 5 4 4 4 4 3 3 2 2 1 1 1 1 1 1 1 1 1 1 2 2 3 3 2 2 4 4 4 5 5 5 5 5 6 5 5 5
9 8 7 6 5 5 5 5 4 4 4 3 3 3 3 2 1 2 1 1 1 1 1 1 1 2 3 3 3 3 3 4 4 4 4 5 5 5 6 6 6 5 5
9 8 8 7 6 5 5 5 5 4 4 4 3 2 2 1 2 2 2 2 2 2 2 1 1 1 3 3 3 3 3 3 4 4 4 4 5 5 6 6 6 6 6
9 9 8 8 7 6 6 5 5 5 5 4 3 3 2 2 2 2 2 2 2 3 3 2 2 2 3 3 3 3 3 3 3 4 5 5 6 5 5 5 6 6 7
9 8 8 8 7 7 7 6 5 5 5 4 4 3 3 3 3 2 2 2 2 3 3 3 3 2 3 3 3 3 3 3 4 3 4 5 6 6 6 6 6 7 7
10 9 9 8 8 8 7 7 6 6 6 6 5 4 4 4 4 3 2 2 2 2 3 3 3 3 3 3 3 3 3 2 3 3 3 3 4 5 5 6 7 8 7
10 10 9 9 8 8 8 7 7 6 6 6 6 5 4 4 4 3 3 3 3 3 4 4 3 3 3 3 2 2 3 3 3 4 3 3 3 4 5 6 7 7 7
10 10 10 9 9 9 9 8 8 7 7 7 6 5 5 5 4 4 4 4 4 4 4 4 3 3 3 3 3 2 2 3 3 3 3 4 4 4 5 5 5 7 7
11 10 10 9 9 9 9 9 8 9 8 7 6 6 5 5 5 4 5 4 4 3 3 4 3 4 4 3 3 3 2 3 3 3 4 4 4 5 5 6 5 6 6
12 11 10 10 10 9 9 9 8 8 8 7 7 6 5 5 5 5 5 4 4 4 3 4 4 4 4 4 3 3 4 5 5 3 4 4 4 5 5 6 6 6 6
13 12 11 10 10 9 9 9 9 9 9 8 7 7 6 6 5 6 5 5 4 4 4 4 4 4 4 5 5 4 5 5 5 4 5 5 6 5 5 6 6 7 7
13 12 12 12 11 10 10 10 10 10 9 8 8 7 7 7 7 7 7 6 6 5 5 5 5 5 5 6 6 6 6 6 5 6 5 6 6 7 7 7 7 8 7
12 12 12 12 12 11 11 11 11 11 9 8 9 8 8 8 8 8 8 8 7 6 6 6 6 6 7 7 7 7 8 7 7 7 7 7 7 7 7 7 7 8 8
12 12 12 12 12 12 12 12 12 11 10 9 9 9 9 9 9 9 9 9 8 7 7 7 7 7 8 8 8 8 8 8 8 8 8 8 8 8 7 8 8 9 9
12 12 12 12 12 12 12 12 11 11 10 10 9 9 9 9 9 9 9 9 9 8 8 8 8 8 9 9 9 9 9 8 7 8 8 8 8 8 8 8 9 9 10
13 12 13 13 12 12 12 13 12 11 11 11 10 10 10 10 10 10 10 10 9 9 9 9 9 9 9 10 10 10 9 8 9 9 9 9 9 9 9 9 9 10 10
13 13 13 13 12 12 13 13 12 12 12 12 12 12 11 11 10 10 10 11 11 11 10 10 10 10 10 10 10 10 9 9 10 11 10 10 10 10 11 11 10 10 10
13 13 13 13 12 12 12 12 13 13 13 13 12 12 11 11 11 11 11 11 11 11 12 12 11 11 11 11 11 10 10 10 10 11 12 11 11 11 12 12 12 11 11
13 14 14 13 14 14 14 14 14 14 15 14 14 13 12 12 12 12 12 12 12 12 12 12 12 12 12 11 11 11 10 10 10 11 12 12 12 13 13 13 13 12 12
15 15 15 15 15 15 15 15 15 16 16 16 15 14 13 13 14 14 14 13 13 12 12 12 12 12 12 12 12 12 12 11 11 12 12 12 13 13 13 14 14 14 14
16 17 16 16 16 16 17 17 17 17 17 16 16 15 15 14 14 14 14 14 14 14 13 13 13 13 13 13 13 13 13 13 13 14 14 14 14 14 14 15 15 16 16
18 18 17 17 18 18 18 18 18 18 17 17 17 17 17 15 15 15 14 13 14 14 15 14 14 13 14 15 14 14 14 14 14 15 15 15 15 16 16 16 16 16 17
18 18 18 19 19 19 19 19 19 19 18 17 17 17 16 15 14 14 13 13 13 14 14 15 15 15 15 15 15 15 15 15 15 16 16 16 16 17 17 18 18 18 19
18 18 18 19 20 19 19 19 19 19 19 18 17 17 17 16 15 14 14 14 14 14 14 15 16 16 16 16 17 16 16 17 17 17 16 17 18 18 19 19 20 19 18
18 18 19 19 20 19 20 20 20 20 19 18 17 17 16 15 15 15 15 15 15 15 16 16 16 17 17 17 17 17 17 18 18 18 17 18 18 19 19 20 21 20 20
20 20 20 21 21 20 20 20 20 19 20 18 17 16 16 15 15 16 16 16 16 17 17 17 17 17 18 18 18 18 18 19 19 19 19 19 19 20 20 20 21 21 22
Wind_Direction
357 2 360 357 352 348 349 348 340 334 331 319 311 305 293 281 263 243 228 250 234 234 232 252 238 226 214 237 233 218 213 209 214 202 197 192 195 197 196 198 188 189 192
352 354 349 347 345 342 339 339 334 328 329 324 311 308 297 268 258 273 276 267 242 237 231 238 244 242 226 229 244 245 231 226 222 208 194 194 200 201 189 195 197 200 201
346 347 347 343 342 339 334 331 327 324 322 322 317 307 305 278 264 273 284 284 250 233 228 227 228 223 244 243 241 242 239 217 211 208 209 210 207 197 194 203 205 211 211
345 342 342 341 337 333 329 327 325 324 323 320 320 306 297 290 274 278 290 289 259 237 231 228 243 246 254 242 238 237 234 223 215 217 216 219 222 216 213 212 214 218 224
342 342 340 338 338 334 328 322 322 321 320 321 313 304 297 292 286 299 302 295 268 245 238 246 247 252 263 263 249 233 227 235 227 215 220 229 237 235 225 223 222 228 234
336 340 338 336 336 332 328 320 320 319 316 314 309 303 303 296 293 292 294 287 275 249 244 246 247 257 266 266 261 254 250 231 228 234 232 240 248 238 233 229 225 229 236
332 333 333 333 332 329 325 319 316 312 311 312 314 307 301 299 296 287 289 286 273 253 246 247 253 261 255 269 283 288 276 251 232 241 247 244 230 227 224 225 225 231 236
331 330 330 330 328 324 322 319 316 310 309 309 311 307 302 299 292 286 289 287 274 259 253 254 253 254 257 268 278 293 285 258 249 273 271 266 248 244 242 237 229 230 237
327 328 327 326 325 320 318 316 312 309 307 309 308 305 303 302 294 291 290 288 283 268 261 255 256 259 259 264 266 267 271 282 261 266 299 292 279 275 270 258 255 251 244
323 324 323 319 322 317 313 312 305 303 298 303 304 302 302 302 300 293 293 287 284 272 267 260 256 259 258 265 274 267 278 278 283 298 304 301 295 287 283 277 275 274 265
320 321 320 318 318 315 312 315 312 307 295 293 293 292 294 296 295 291 291 288 279 267 262 256 253 260 265 276 283 281 286 288 298 306 303 296 296 291 285 284 276 277 271
316 317 317 318 319 318 318 316 312 306 297 291 290 288 288 287 287 287 288 289 276 261 260 259 259 259 264 272 280 283 286 290 291 293 293 292 288 286 285 283 279 275 274
312 314 315 315 316 316 317 313 309 303 297 296 290 290 288 285 282 277 278 281 278 268 265 261 260 260 259 265 272 280 284 285 283 281 283 287 285 282 282 284 282 278 276
308 310 312 310 311 315 317 316 311 307 297 299 293 289 289 287 284 279 276 274 272 265 265 266 263 262 264 269 273 278 279 282 278 278 278 284 288 287 280 282 284 277 272
301 303 308 309 307 309 312 312 311 310 305 304 297 291 293 290 289 284 280 277 273 267 267 265 264 265 269 271 273 275 279 278 275 273 275 282 287 288 286 285 284 284 277
309 309 307 308 305 305 305 306 308 306 305 303 299 293 290 293 294 289 284 280 275 273 272 268 265 268 272 274 274 273 275 274 271 273 277 278 282 287 284 284 284 286 284
304 307 306 304 305 305 305 305 307 304 303 301 297 289 289 291 293 291 285 280 278 275 270 267 266 269 273 275 276 273 275 277 275 275 277 277 280 282 282 282 284 286 285
297 301 301 303 305 306 307 305 304 302 300 298 298 290 287 287 288 286 286 281 277 273 270 266 267 269 271 274 277 276 277 279 278 275 274 275 276 278 278 280 282 286 284
293 295 296 296 300 304 305 302 302 302 301 296 294 290 286 285 283 283 281 282 280 272 268 266 266 268 271 273 276 275 275 277 279 279 276 274 272 273 274 277 280 283 285
287 290 291 291 295 298 299 299 299 299 299 295 292 292 290 288 285 284 283 281 281 275 267 264 262 265 268 271 275 277 275 276 279 280 280 279 277 276 276 276 278 279 280
283 283 285 288 291 293 294 296 297 297 297 295 291 290 289 286 284 284 283 279 279 275 267 267 265 264 268 272 275 277 278 278 279 279 279 280 280 278 276 276 279 278 275
281 281 286 288 289 291 294 296 296 297 297 294 292 287 287 284 281 282 280 277 275 274 269 268 270 268 269 272 275 277 278 280 281 282 281 281 282 281 278 276 278 280 278
277 280 283 286 290 292 293 296 295 296 297 294 290 287 286 283 279 277 277 277 274 275 276 269 268 269 271 272 274 276 278 279 281 282 282 281 281 280 278 279 281 282 280
279 281 283 286 290 291 294 296 294 295 296 296 289 287 284 281 277 275 276 277 276 277 280 277 272 270 272 272 273 276 277 278 279 279 280 282 281 278 279 281 282 282 282
276 278 283 287 291 291 293 296 295 294 293 294 291 287 282 277 274 274 274 275 275 276 278 275 274 273 273 273 273 274 276 278 280 280 281 282 281 280 279 279 281 280 282
276 276 281 285 287 290 293 294 293 292 293 291 288 285 281 278 276 276 276 276 277 278 278 278 275 273 273 273 274 274 275 276 278 279 279 281 281 280 280 281 282 282 282
Height
5882 5881 5880 5879 5878 5877 5877 5876 5875 5875 5874 5873 5872 5871 5870 5870 5869 5870 5870 5870 5870 5869 5869 5869 5870 5870 5870 5871 5871 5871 5872 5873 5874 5874 5875 5875 5876 5877 5878 5879 5880 5882 5882
5882 5881 5880 5879 5878 5877 5877 5876 5875 5874 5873 5873 5872 5871 5869 5869 5869 5870 5870 5870 5869 5869 5869 5870 5869 5870 5870 5871 5871 5872 5872 5873 5873 5874 5875 5875 5876 5877 5878 5879 5880 5881 5883
5883 5881 5880 5879 5878 5877 5876 5876 5875 5874 5873 5873 5872 5871 5870 5870 5870 5870 5870 5870 5869 5870 5870 5870 5870 5870 5870 5870 5871 5872 5872 5873 5873 5874 5875 5875 5875 5876 5878 5879 5880 5881 5882
5883 5881 5880 5879 5878 5877 5876 5875 5875 5874 5873 5872 5872 5871 5870 5870 5870 5870 5870 5870 5869 5869 5869 5870 5870 5870 5870 5870 5871 5871 5872 5872 5873 5874 5875 5875 5875 5876 5877 5878 5880 5881 5882
5883 5881 5879 5878 5877 5876 5876 5875 5874 5874 5873 5872 5872 5871 5870 5870 5870 5870 5870 5869 5869 5869 5869 5870 5870 5870 5870 5870 5871 5871 5872 5872 5873 5873 5874 5875 5875 5876 5877 5878 5879 5880 5881
5882 5881 5879 5878 5877 5876 5875 5875 5874 5873 5873 5872 5871 5871 5870 5870 5869 5869 5869 5869 5869 5869 5869 5869 5870 5870 5870 5870 5871 5871 5872 5872 5873 5873 5874 5874 5875 5875 5876 5877 5878 5880 5881
5881 5880 5879 5878 5877 5876 5875 5874 5873 5873 5872 5872 5871 5871 5870 5870 5869 5869 5869 5869 5869 5869 5869 5869 5870 5870 5870 5870 5871 5871 5871 5872 5872 5873 5874 5874 5875 5875 5876 5877 5878 5879 5880
5881 5879 5878 5877 5876 5875 5874 5873 5873 5872 5872 5871 5871 5870 5870 5869 5869 5869 5868 5868 5868 5868 5869 5869 5869 5869 5870 5870 5871 5871 5871 5872 5872 5873 5873 5874 5875 5875 5876 5877 5877 5878 5879
5879 5879 5877 5876 5875 5874 5873 5873 5872 5871 5871 5870 5870 5870 5869 5869 5868 5868 5868 5867 5868 5868 5868 5868 5869 5869 5869 5870 5870 5871 5871 5872 5872 5872 5873 5873 5874 5875 5876 5876 5877 5878 5879
5878 5877 5877 5876 5874 5873 5872 5872 5871 5870 5870 5870 5869 5869 5869 5868 5868 5867 5867 5867 5867 5867 5868 5868 5868 5869 5869 5869 5870 5870 5871 5871 5872 5872 5872 5873 5873 5874 5875 5876 5876 5877 5878
5877 5876 5875 5874 5873 5872 5871 5870 5869 5869 5868 5868 5868 5868 5868 5868 5867 5867 5867 5866 5867 5867 5867 5868 5868 5868 5868 5869 5869 5870 5870 5871 5871 5872 5872 5873 5873 5873 5874 5875 5875 5876 5876
5876 5875 5874 5873 5872 5871 5870 5869 5868 5868 5867 5867 5867 5867 5867 5867 5866 5866 5866 5866 5866 5866 5867 5867 5867 5868 5868 5868 5868 5869 5869 5870 5870 5871 5871 5872 5872 5872 5873 5873 5874 5874 5875
5875 5874 5873 5871 5870 5870 5869 5868 5867 5867 5866 5866 5865 5865 5865 5865 5865 5865 5865 5865 5865 5865 5866 5866 5866 5867 5867 5867 5868 5868 5868 5869 5869 5869 5870 5870 5871 5871 5871 5872 5872 5873 5873
5873 5873 5872 5871 5870 5869 5868 5867 5866 5865 5865 5865 5864 5864 5864 5864 5864 5863 5863 5863 5864 5864 5864 5865 5865 5865 5866 5866 5866 5866 5867 5867 5868 5868 5868 5869 5869 5869 5870 5870 5871 5871 5872
5872 5871 5871 5870 5869 5868 5867 5866 5865 5864 5864 5864 5863 5862 5862 5862 5862 5862 5862 5862 5862 5862 5863 5863 5863 5864 5864 5864 5864 5865 5865 5866 5866 5866 5866 5867 5867 5868 5868 5869 5869 5869 5869
5870 5869 5869 5868 5867 5867 5866 5865 5864 5864 5863 5862 5862 5861 5861 5861 5861 5861 5860 5860 5860 5860 5861 5861 5861 5862 5862 5862 5863 5863 5863 5864 5864 5864 5864 5865 5866 5866 5866 5867 5867 5867 5867
5869 5868 5867 5867 5866 5865 5865 5864 5863 5862 5861 5861 5860 5860 5859 5859 5859 5859 5859 5859 5859 5859 5859 5859 5860 5860 5860 5861 5861 5861 5862 5862 5862 5862 5863 5863 5864 5864 5864 5864 5865 5865 5865
5867 5867 5866 5865 5864 5863 5863 5862 5861 5860 5859 5859 5858 5857 5857 5857 5856 5856 5857 5857 5856 5856 5857 5857 5858 5859 5859 5859 5859 5859 5860 5860 5860 5861 5861 5861 5862 5862 5862 5862 5862 5862 5862
5865 5865 5864 5863 5862 5862 5861 5860 5859 5858 5857 5856 5856 5855 5855 5854 5854 5854 5854 5854 5854 5854 5854 5855 5856 5856 5857 5857 5857 5857 5858 5858 5858 5858 5859 5859 5860 5860 5860 5859 5860 5860 5860
5862 5862 5861 5861 5860 5859 5858 5857 5856 5855 5854 5853 5853 5852 5852 5852 5852 5851 5851 5852 5852 5852 5852 5852 5853 5854 5854 5855 5855 5855 5855 5855 5856 5856 5856 5856 5857 5857 5857 5857 5857 5857 5857
5859 5859 5858 5858 5857 5856 5856 5855 5854 5852 5851 5850 5849 5849 5848 5848 5848 5848 5848 5849 5849 5849 5849 5849 5850 5851 5851 5852 5852 5852 5853 5853 5853 5853 5853 5853 5854 5854 5854 5854 5854 5854 5853
5855 5854 5854 5854 5854 5853 5852 5851 5850 5849 5848 5847 5846 5846 5844 5844 5844 5845 5845 5845 5846 5846 5847 5847 5847 5848 5848 5849 5849 5849 5850 5850 5849 5850 5850 5850 5850 5850 5850 5850 5850 5850 5850
5852 5852 5850 5851 5850 5849 5848 5848 5846 5845 5844 5844 5843 5842 5841 5841 5841 5841 5842 5842 5843 5843 5843 5843 5844 5844 5845 5845 5845 5846 5846 5846 5846 5846 5846 5846 5846 5846 5846 5846 5846 5846 5846
5848 5847 5846 5847 5847 5846 5845 5844 5843 5842 5841 5840 5839 5838 5838 5838 5838 5838 5839 5839 5840 5840 5840 5840 5840 5841 5842 5842 5842 5842 5842 5842 5842 5843 5843 5842 5842 5842 5842 5842 5841 5841 5841
5844 5844 5843 5843 5843 5842 5841 5840 5839 5838 5837 5836 5835 5835 5834 5835 5835 5835 5836 5836 5837 5837 5837 5837 5837 5837 5838 5838 5838 5838 5838 5838 5838 5838 5838 5838 5838 5838 5838 5837 5837 5836 5836
5840 5839 5840 5840 5839 5838 5837 5836 5835 5834 5833 5833 5832 5832 5832 5832 5832 5832 5833 5833 5833 5834 5834 5833 5833 5833 5833 5834 5834 5834 5834 5834 5834 5834 5834 5834 5833 5833 5833 5832 5832 5832 5831